| time (UTC) | temp F | wind direction | speed knots | gust knots | rain 1hr in | rain 24hr in | rain mn in | humidity % | barometer mb |
| 20260507162003 | 67 | 183 | 1.7 | 6.1 | 0.00 | 0.00 | 0.00 | 60 | 1012.0 |
| 20260507161003 | 69 | 194 | 1.7 | 5.2 | 0.00 | 0.00 | 0.00 | 58 | 1012.1 |
| 20260507160003 | 70 | 258 | 0.9 | 4.3 | 0.00 | 0.00 | 0.00 | 57 | 1012.0 |
| 20260507155003 | 69 | 248 | 0.9 | 7.0 | 0.00 | 0.00 | 0.00 | 57 | 1012.0 |
| 20260507154003 | 69 | 288 | 1.7 | 7.0 | 0.00 | 0.00 | 0.00 | 60 | 1012.1 |
| 20260507153003 | 69 | 241 | 0.9 | 4.3 | 0.00 | 0.00 | 0.00 | 58 | 1011.9 |
| 20260507152003 | 69 | 173 | 0.9 | 4.3 | 0.00 | 0.00 | 0.00 | 60 | 1012.2 |
| 20260507151003 | 68 | 230 | 0.9 | 5.2 | 0.00 | 0.00 | 0.00 | 62 | 1012.1 |
| 20260507150004 | 70 | 225 | 0.9 | 3.5 | 0.00 | 0.00 | 0.00 | 58 | 1012.3 |
| 20260507145003 | 69 | 194 | 1.7 | 6.1 | 0.00 | 0.00 | 0.00 | 61 | 1012.2 |
| 20260507144003 | 69 | 191 | 1.7 | 7.0 | 0.00 | 0.00 | 0.00 | 61 | 1012.3 |
| 20260507143003 | 68 | 190 | 1.7 | 7.0 | 0.00 | 0.00 | 0.00 | 55 | 1012.5 |
| 20260507142003 | 67 | 167 | 1.7 | 6.1 | 0.00 | 0.00 | 0.00 | 59 | 1012.4 |
| 20260507141003 | 67 | 167 | 1.7 | 9.6 | 0.00 | 0.00 | 0.00 | 62 | 1012.4 |
| 20260507140004 | 67 | 169 | 1.7 | 7.0 | 0.00 | 0.00 | 0.00 | 60 | 1012.5 |
| 20260506215003 | 53 | 225 | 0.0 | 1.7 | 0.00 | 0.01 | 0.01 | 83 | 1015.0 |
| 20260506214003 | 53 | 0 | 0.0 | 0.0 | 0.00 | 0.01 | 0.01 | 82 | 1015.1 |
| 20260506213004 | 53 | 0 | 0.0 | 0.0 | 0.00 | 0.01 | 0.01 | 82 | 1015.1 |
| 20260506212004 | 53 | 0 | 0.0 | 0.0 | 0.00 | 0.01 | 0.01 | 81 | 1014.9 |
| 20260506211003 | 54 | 225 | 0.0 | 1.7 | 0.00 | 0.01 | 0.01 | 81 | 1014.8 |
| 20260506210003 | 54 | 228 | 0.0 | 2.6 | 0.00 | 0.01 | 0.01 | 80 | 1014.9 |
| 20260506205003 | 54 | 135 | 0.0 | 2.6 | 0.00 | 0.01 | 0.01 | 80 | 1014.8 |
| 20260506204004 | 54 | 135 | 0.0 | 2.6 | 0.00 | 0.01 | 0.01 | 80 | 1014.6 |
| 20260506203003 | 54 | 147 | 0.0 | 4.3 | 0.00 | 0.01 | 0.01 | 80 | 1014.5 |
| 20260506202003 | 55 | 180 | 0.0 | 1.7 | 0.00 | 0.01 | 0.01 | 80 | 1014.4 |
| 20260506201003 | 55 | 180 | 0.0 | 1.7 | 0.00 | 0.01 | 0.01 | 79 | 1014.2 |
| 20260506200004 | 55 | 270 | 0.0 | 1.7 | 0.00 | 0.01 | 0.01 | 79 | 1014.0 |
| 20260506195003 | 55 | 0 | 0.0 | 0.0 | 0.00 | 0.01 | 0.01 | 80 | 1013.9 |
| 20260506194003 | 55 | 0 | 0.0 | 0.0 | 0.00 | 0.01 | 0.01 | 80 | 1013.7 |
| 20260506193003 | 56 | 0 | 0.0 | 0.0 | 0.00 | 0.01 | 0.01 | 80 | 1013.3 |
| 20260506192003 | 57 | 360 | 0.0 | 1.7 | 0.00 | 0.01 | 0.01 | 79 | 1013.3 |
| 20260506191003 | 58 | 350 | 0.9 | 3.5 | 0.00 | 0.02 | 0.01 | 76 | 1013.1 |
| 20260506190004 | 58 | 348 | 0.9 | 3.5 | 0.00 | 0.02 | 0.01 | 69 | 1013.0 |
| 20260506185003 | 58 | 123 | 0.9 | 3.5 | 0.00 | 0.02 | 0.01 | 70 | 1012.9 |
| 20260506184003 | 59 | 168 | 0.0 | 3.5 | 0.00 | 0.02 | 0.01 | 69 | 1012.5 |
| 20260506183003 | 59 | 180 | 0.0 | 1.7 | 0.00 | 0.05 | 0.01 | 68 | 1012.4 |
| 20260506182003 | 60 | 180 | 0.0 | 1.7 | 0.00 | 0.05 | 0.01 | 66 | 1012.1 |
| 20260506181003 | 60 | 171 | 0.9 | 5.2 | 0.00 | 0.05 | 0.01 | 64 | 1011.9 |
| 20260506180004 | 60 | 183 | 1.7 | 8.7 | 0.00 | 0.05 | 0.01 | 63 | 1011.9 |
| 20260506175003 | 61 | 195 | 1.7 | 5.2 | 0.00 | 0.05 | 0.01 | 62 | 1011.8 |
| 20260506174003 | 61 | 197 | 1.7 | 7.0 | 0.00 | 0.05 | 0.01 | 61 | 1011.6 |
| 20260506173003 | 62 | 205 | 1.7 | 6.1 | 0.00 | 0.05 | 0.01 | 60 | 1011.5 |
| 20260506172003 | 63 | 180 | 3.5 | 9.6 | 0.00 | 0.06 | 0.01 | 60 | 1011.4 |
| 20260506171003 | 64 | 186 | 2.6 | 9.6 | 0.00 | 0.06 | 0.01 | 57 | 1011.5 |
| 20260506170003 | 64 | 189 | 3.5 | 8.7 | 0.00 | 0.06 | 0.01 | 57 | 1011.3 |
| 20260506165003 | 64 | 202 | 1.7 | 6.1 | 0.00 | 0.07 | 0.01 | 55 | 1011.5 |
| 20260506164003 | 63 | 205 | 3.5 | 8.7 | 0.00 | 0.07 | 0.01 | 57 | 1011.3 |
| 20260506163003 | 64 | 199 | 3.5 | 13.0 | 0.00 | 0.07 | 0.01 | 57 | 1011.2 |